Theta_e
312 314 314 314 313 313 313 312 312 312 313 313 313 313 314 313 310 310 310 307 307 312 313 313 313 312 313 313 313 313 311 310 311 311 312 313 313 314 315 314 314 314 314 311 308 307 308 308 308 308 308 308 309 311 315 319 321 322 324 325 325 326 327 327 328 328 328 329 330 330 329 330 330 330 329 330 331 333 333 333 332 332 332 332 332 332
311 314 315 314 313 313 312 311 311 311 311 313 312 312 312 313 311 309 310 308 306 310 313 311 311 313 313 313 313 313 312 312 312 313 313 314 314 314 315 315 315 314 312 310 308 308 307 307 307 307 308 308 307 308 310 313 316 320 322 323 324 324 325 326 327 327 328 328 329 329 329 329 329 329 330 329 329 329 330 330 329 329 331 333 332 332
313 315 315 312 310 310 309 309 310 312 312 313 313 312 311 312 311 309 309 308 306 310 313 311 311 313 314 314 314 314 313 313 314 313 313 313 314 313 314 314 314 313 312 311 310 309 308 306 306 306 306 307 307 307 308 309 311 315 318 320 322 323 323 324 325 326 327 327 327 327 327 327 327 328 329 329 330 330 330 330 329 329 330 331 331 330
314 313 311 308 307 309 309 308 311 312 312 314 314 312 312 313 312 310 311 309 306 308 310 312 312 314 314 313 313 312 310 311 310 308 309 309 311 312 313 313 311 310 311 311 310 310 309 306 306 305 305 305 306 306 307 307 308 310 312 315 318 321 321 322 323 324 325 326 326 326 326 326 326 326 326 326 327 329 330 331 332 332 331 329 328 328
313 309 305 306 308 311 311 309 312 312 311 315 316 314 314 314 313 312 311 309 307 307 308 311 312 313 315 313 313 311 307 307 306 306 307 308 308 308 308 308 308 308 309 309 310 310 309 308 307 306 305 305 304 305 306 307 307 308 309 310 313 316 318 319 320 321 323 325 324 325 325 325 325 325 325 324 325 325 326 328 329 329 329 329 328 328
312 305 303 308 309 312 313 311 314 314 312 314 315 315 315 313 313 313 312 311 311 311 309 310 309 310 313 314 313 312 309 309 308 308 309 309 308 308 308 309 309 308 307 307 308 308 308 307 307 306 307 306 305 305 306 306 307 308 308 308 310 311 314 316 318 319 322 323 323 324 324 324 324 324 324 324 324 325 325 325 326 326 328 329 330 330
308 303 306 311 311 314 314 311 315 316 312 312 314 315 315 314 317 316 315 314 312 311 310 309 310 309 312 313 314 312 312 312 311 311 311 310 310 311 311 312 311 310 309 307 306 306 305 306 307 310 310 308 306 305 305 306 307 307 308 308 309 310 312 314 316 318 321 322 323 323 323 323 324 324 324 324 324 324 325 325 325 325 326 327 328 328
306 305 308 312 313 314 313 312 316 315 312 313 314 315 315 316 320 319 316 314 312 311 311 311 313 310 309 312 314 311 311 312 312 311 312 312 312 312 311 312 311 311 310 308 307 306 307 308 310 312 311 309 308 307 307 307 307 308 308 309 310 311 312 313 316 319 321 321 322 323 323 323 323 323 324 324 324 324 324 324 325 324 324 325 325 325
308 310 310 312 313 313 314 316 316 314 314 315 311 312 315 315 319 318 315 313 311 311 311 313 313 310 309 313 314 309 310 312 312 312 313 313 312 311 311 311 310 310 308 306 306 309 311 311 311 311 310 310 309 309 309 308 309 309 310 311 312 313 314 315 317 319 320 321 322 323 323 323 323 323 323 323 323 323 323 323 323 323 323 324 324 324
310 310 310 311 313 314 314 311 311 315 315 312 308 311 313 314 315 315 314 312 310 311 312 313 311 309 309 314 314 310 310 312 312 312 313 312 311 310 310 309 309 310 310 308 308 310 312 311 310 310 310 310 311 311 311 310 311 311 312 313 314 315 316 317 318 319 320 321 322 322 322 322 322 322 322 322 321 321 321 321 321 322 322 323 323 323
309 307 310 312 312 311 308 305 308 314 313 309 311 313 313 313 313 312 311 310 310 312 311 309 308 308 308 312 315 312 310 311 312 312 312 312 311 311 309 308 308 308 310 310 310 311 311 309 309 310 310 311 312 312 312 313 313 313 314 315 316 317 317 318 319 319 320 321 321 322 322 322 322 322 322 321 320 320 321 321 321 321 321 322 322 323
310 309 311 311 308 308 309 308 306 308 308 310 315 314 313 313 312 312 310 310 312 312 308 305 305 308 308 310 313 311 310 309 311 313 312 312 312 311 310 308 307 307 309 310 311 311 311 311 311 311 311 311 312 313 313 314 314 314 315 316 316 317 317 318 319 319 320 320 321 321 321 321 321 322 322 321 320 320 320 320 320 320 320 321 322 322
314 312 311 310 307 308 313 312 307 307 309 311 314 313 313 313 312 313 313 312 313 311 305 304 305 308 309 310 310 310 309 308 310 313 313 312 312 311 311 310 308 308 309 311 312 312 313 313 313 312 312 312 311 312 313 313 314 314 314 315 315 315 315 316 316 317 318 318 319 320 320 320 320 320 320 320 320 320 319 319 319 318 318 319 319 319
314 315 313 312 310 310 314 313 310 310 310 311 314 313 313 314 313 314 312 310 310 308 304 304 306 309 310 310 311 310 310 309 309 310 312 311 310 309 309 310 310 309 310 312 312 312 312 313 312 312 311 310 311 311 312 312 312 312 313 313 313 313 313 313 313 314 314 314 315 315 316 317 317 317 317 317 318 318 317 317 317 317 317 317 316 316
314 314 314 314 313 311 313 313 314 314 312 313 317 314 312 313 313 313 311 310 310 309 305 304 307 311 310 309 310 309 309 309 307 306 307 307 306 306 308 308 309 310 310 312 312 312 312 311 310 310 309 309 309 310 310 310 311 311 311 311 311 311 311 311 311 312 312 312 312 312 313 313 313 314 314 314 315 315 315 315 315 315 315 315 315 315
313 312 312 312 311 311 313 314 315 315 312 312 312 312 312 313 312 309 307 308 308 308 308 307 308 311 311 310 310 308 307 309 308 306 308 308 307 307 309 309 310 311 311 312 312 311 311 310 309 309 308 308 308 308 309 309 310 310 310 310 310 310 311 310 311 311 310 311 311 311 311 311 311 312 312 312 312 312 313 313 313 313 313 313 313 313
311 311 312 312 310 310 311 312 314 315 313 310 310 310 310 313 314 309 305 304 305 308 310 309 310 311 309 309 311 309 309 311 310 308 309 310 310 310 312 311 312 312 311 312 312 311 310 309 309 309 308 307 306 307 307 308 309 310 310 310 311 310 311 311 310 311 311 311 310 310 311 311 311 311 311 311 311 311 311 311 311 311 312 312 312 312
314 312 313 314 313 310 309 311 313 313 313 311 312 312 309 310 312 310 308 307 306 309 310 308 310 309 308 309 310 310 311 312 311 309 308 309 310 311 312 312 313 313 311 311 310 309 310 310 309 307 305 305 306 306 307 308 309 309 310 310 310 310 310 310 310 310 310 310 310 310 310 310 310 310 311 311 310 310 310 310 311 311 311 311 311 311
317 313 312 313 314 311 311 313 312 311 312 311 312 312 310 311 311 308 309 310 309 310 311 308 306 307 309 309 309 310 311 312 311 310 309 308 310 312 312 312 312 311 311 310 309 309 310 309 308 306 305 305 306 306 307 307 308 308 309 309 309 309 309 309 309 309 309 310 310 310 310 309 310 310 310 310 310 310 310 310 310 310 310 310 310 310
316 314 312 312 313 312 312 313 313 312 310 308 308 309 310 312 311 310 309 310 310 310 310 309 306 307 311 310 310 310 311 311 311 311 310 309 311 312 312 312 313 312 312 311 309 309 309 308 306 305 305 306 306 307 307 307 308 308 308 308 308 308 308 308 309 309 309 309 309 309 309 309 309 309 309 309 309 309 309 309 309 309 309 309 309 309
313 312 313 312 311 312 313 313 315 315 311 308 308 309 310 310 309 310 309 307 309 309 309 309 308 308 310 310 310 310 310 310 311 313 312 310 311 312 312 313 314 312 312 310 309 308 308 307 305 304 305 305 306 307 307 307 308 308 308 308 308 308 308 308 308 308 308 309 309 309 309 309 309 308 308 308 308 307 307 308 308 308 308 308 308 308
312 311 314 314 312 313 314 312 312 314 315 312 309 310 312 311 310 311 311 308 307 308 307 308 308 309 312 310 309 309 308 307 309 312 314 311 310 312 313 314 313 312 310 308 307 307 307 307 305 304 304 305 306 306 306 307 307 307 308 308 308 308 308 308 308 308 308 309 309 309 308 308 308 307 307 307 306 306 306 307 307 307 307 306 307 307
315 314 315 314 314 314 313 310 307 310 314 312 310 312 312 312 312 312 313 310 306 305 305 306 307 311 313 309 306 306 305 305 304 307 310 310 310 312 313 312 311 309 307 305 305 306 306 305 304 303 304 304 304 305 305 306 306 306 306 306 307 307 306 307 307 307 307 307 307 307 307 306 306 306 305 305 305 305 305 306 306 306 306 306 306 306
315 316 316 313 313 313 311 310 309 310 313 311 311 313 311 313 315 312 312 311 309 307 307 308 308 311 314 310 306 305 305 306 305 304 307 310 311 311 311 309 308 307 305 304 304 304 304 303 303 303 304 303 303 303 303 304 305 305 306 306 306 306 306 306 306 306 306 306 306 305 305 305 305 305 305 304 304 305 305 305 305 305 305 305 304 304
312 315 316 313 313 314 313 312 312 312 312 311 313 313 312 314 314 310 308 309 310 310 310 310 310 311 313 312 309 308 307 309 308 304 305 310 311 310 309 308 307 306 305 304 304 303 303 303 303 303 303 302 301 301 301 302 303 304 304 305 305 306 305 305 305 305 305 305 305 305 304 305 304 304 304 304 304 304 304 304 304 304 304 304 304 304
313 316 315 314 315 315 315 315 315 315 313 312 315 315 313 313 312 310 310 310 310 311 310 310 311 310 310 309 310 310 308 309 308 305 304 308 310 310 309 308 306 306 306 305 304 303 303 303 302 302 301 301 300 300 300 300 301 302 303 304 305 305 304 304 304 304 304 303 303 303 303 302 302 302 302 302 302 302 301 302 302 302 302 301 302 302
316 317 313 313 314 314 314 315 317 318 316 315 317 316 314 312 312 313 313 312 312 311 309 311 313 312 310 309 309 310 309 309 309 306 305 308 310 310 309 308 306 306 306 304 304 303 302 301 301 301 300 300 299 299 299 299 299 300 301 302 302 303 302 302 302 302 301 301 300 300 300 299 299 299 299 299 298 298 298 298 298 298 298 298 298 299
317 315 313 314 314 314 316 318 319 319 317 316 317 316 314 313 312 313 314 313 314 312 310 312 314 313 311 309 311 313 312 311 309 306 306 309 310 310 308 307 306 305 304 304 303 303 302 301 301 300 300 299 298 298 298 298 298 298 299 300 300 300 300 300 300 299 299 298 298 297 297 297 297 297 297 297 297 297 297 297 297 297 297 297 297 297
315 312 314 315 313 315 317 318 318 318 316 316 318 317 315 313 312 313 314 315 315 313 312 314 315 314 312 310 312 313 312 312 310 308 309 310 310 309 308 308 307 306 304 303 303 302 301 301 301 300 299 298 297 297 297 297 297 297 297 298 298 299 298 298 298 297 297 297 296 296 296 296 296 296 296 296 296 296 296 296 296 296 296 296 296 296
314 313 316 314 312 314 315 315 317 317 316 316 318 317 315 313 312 313 313 314 315 314 313 316 317 315 312 311 312 313 312 311 311 309 310 311 310 309 308 309 308 306 305 304 303 302 301 300 300 299 298 298 297 297 297 296 296 296 296 297 297 297 297 296 296 296 296 296 296 296 296 295 295 295 295 295 295 295 295 295 295 295 295 295 295 295
312 314 318 315 312 313 315 316 315 315 314 315 317 316 314 313 313 312 313 314 315 314 314 316 317 315 312 311 312 313 311 309 309 309 308 309 309 308 307 309 308 306 304 303 302 301 299 299 299 299 298 298 297 296 296 296 295 295 295 295 296 296 295 295 295 295 295 295 295 295 295 294 294 294 294 294 294 294 294 294 294 294 294 294 294 294
310 314 315 313 311 314 316 316 313 312 312 312 315 315 313 313 313 313 313 314 314 314 314 315 315 313 311 311 312 312 310 309 309 309 308 309 310 308 307 308 307 306 304 302 300 300 298 298 299 298 297 297 296 295 295 295 295 294 294 295 295 295 295 294 294 294 294 294 294 294 294 293 294 294 294 293 293 293 293 293 293 293 294 294 293 293
312 313 313 312 311 314 314 312 311 312 311 311 313 314 313 313 313 313 313 314 314 314 314 314 314 312 311 311 310 311 312 311 310 310 309 309 309 308 307 307 307 305 303 301 299 298 298 298 298 297 297 296 295 295 294 294 294 294 294 294 294 294 294 293 293 293 292 292 292 293 293 293 293 293 293 293 293 293 293 293 293 293 293 293 293 293
314 314 312 312 312 314 311 309 311 313 312 311 313 314 314 314 313 313 314 313 313 313 312 312 313 312 312 311 310 312 311 311 312 310 309 310 309 308 308 308 307 304 302 300 299 298 298 298 297 296 295 294 294 294 293 293 293 293 293 293 293 293 292 292 292 291 291 292 292 292 293 293 293 293 293 293 293 293 293 293 293 293 293 293 293 293
313 312 311 310 311 312 308 309 312 312 312 314 316 314 312 312 312 313 314 312 311 312 312 312 312 311 312 311 311 312 310 313 317 314 310 311 309 307 308 307 305 302 300 299 298 298 298 297 296 296 295 293 293 293 292 292 292 292 292 292 292 292 291 291 292 292 291 292 292 292 292 292 292 293 293 293 293 293 293 293 293 293 292 292 292 292
312 312 311 309 310 310 308 310 313 313 314 315 315 312 310 311 311 313 314 313 311 311 311 311 311 311 312 310 310 314 315 315 316 314 312 310 308 307 308 306 302 300 299 298 298 298 297 296 296 295 293 292 292 291 291 292 292 292 291 291 291 291 291 291 291 291 290 290 290 291 291 291 291 291 291 292 292 292 292 292 292 291 291 291 291 291
311 311 311 310 310 311 310 311 312 314 315 315 315 312 310 310 311 312 314 313 311 310 310 311 310 310 311 311 311 313 313 311 312 313 310 305 304 306 307 304 301 299 299 298 297 296 295 295 294 293 291 291 290 290 290 291 291 291 291 290 290 290 290 290 289 289 289 288 288 289 289 289 290 290 290 291 291 291 291 290 290 290 290 290 290 290
312 313 314 313 311 311 311 311 312 313 314 314 315 314 311 310 311 311 312 313 312 310 310 310 310 310 311 312 312 312 311 309 311 314 309 301 299 301 301 299 298 297 297 296 295 294 293 293 292 290 290 290 289 289 290 290 290 290 290 289 289 288 288 288 287 287 287 287 288 288 289 289 289 289 289 289 289 289 289 289 289 289 289 288 288 289
314 314 314 313 312 311 311 312 313 313 313 314 317 317 312 310 311 311 311 312 312 311 311 310 310 310 312 313 311 312 311 310 312 313 307 298 297 298 297 296 296 295 294 294 293 293 292 291 290 289 289 289 288 288 289 289 290 289 288 288 287 287 286 286 286 286 287 288 288 288 288 287 288 288 288 288 288 288 288 288 288 288 288 288 288 288
313 313 312 312 313 312 312 313 313 313 315 317 318 316 311 309 310 312 313 313 313 312 311 310 309 310 311 312 310 310 310 311 313 311 301 296 297 296 295 295 294 293 292 292 291 291 290 289 288 288 287 287 287 287 288 288 289 288 287 286 285 285 284 284 285 286 287 287 287 287 287 287 287 287 287 287 287 287 288 288 288 287 287 288 288 287
312 312 312 313 314 313 313 314 313 313 319 321 316 310 309 310 312 314 315 315 315 315 313 310 309 310 310 310 309 310 310 310 309 303 296 295 296 294 294 293 292 291 291 290 290 289 288 288 287 286 286 285 286 286 287 288 287 286 285 284 283 283 283 284 286 286 287 286 286 286 286 287 287 287 287 286 286 287 287 287 287 287 286 286 287 286
314 314 314 314 315 314 314 314 313 315 320 319 311 306 309 312 314 315 316 315 316 317 314 310 309 311 311 309 309 310 307 302 299 297 295 295 294 292 292 291 290 289 288 288 288 287 287 286 286 285 284 284 284 285 286 286 286 285 283 282 282 282 284 285 285 285 285 284 283 284 285 286 286 286 286 286 285 285 286 286 286 286 285 285 285 285
314 315 315 315 315 315 315 315 316 316 315 312 309 307 310 313 314 314 316 314 311 312 312 310 310 311 310 309 309 306 301 297 296 296 295 293 292 291 291 290 289 288 287 286 286 286 286 285 285 283 282 282 283 284 284 285 285 284 282 281 281 282 283 283 283 283 282 282 281 282 283 284 285 285 285 284 283 283 284 285 285 285 284 283 282 283
314 314 315 315 315 316 316 315 317 317 312 311 313 313 311 311 311 311 314 317 314 309 307 309 310 309 308 308 305 301 298 297 296 295 294 292 291 290 290 290 288 287 285 284 284 284 284 284 283 282 280 280 281 282 283 283 283 282 280 280 281 281 281 281 281 281 280 280 280 281 283 284 284 283 282 281 282 282 282 283 283 283 283 281 280 281
312 313 315 315 315 315 315 315 317 316 311 309 313 315 313 312 310 308 311 317 318 311 306 308 309 306 304 305 302 299 297 296 295 294 293 292 290 289 289 288 287 285 284 282 282 282 282 282 281 280 278 278 279 281 281 281 281 280 279 279 279 279 278 278 278 278 278 279 280 281 282 281 281 280 280 280 280 280 281 281 281 281 281 280 279 281
309 310 312 314 313 313 314 314 314 311 309 307 307 305 306 307 306 306 308 312 314 309 304 305 306 303 301 301 301 298 297 296 294 293 292 290 289 288 287 286 285 283 282 281 280 280 280 280 278 277 277 276 277 279 280 279 279 278 277 277 277 277 277 277 278 278 278 278 279 279 278 277 277 278 278 279 279 279 279 279 278 278 279 279 279 280
309 309 310 312 313 313 314 314 312 309 308 308 305 302 302 302 301 301 305 307 306 303 301 302 302 300 299 300 300 298 296 295 293 292 290 289 287 286 286 285 283 281 280 279 278 278 278 278 276 275 275 275 276 277 278 277 276 276 276 276 276 277 277 277 277 276 276 276 276 276 275 275 275 276 277 278 278 278 278 277 276 276 277 277 278 279
309 309 310 312 312 312 313 311 306 303 302 302 302 302 303 304 302 299 298 300 300 299 299 299 299 299 299 299 299 297 295 294 292 291 289 288 286 286 285 283 281 279 278 277 276 276 276 276 275 274 274 273 274 276 276 275 275 275 275 276 275 276 276 275 274 274 274 274 274 274 274 274 274 274 276 276 276 276 276 275 275 276 276 277 277 277
307 307 309 311 311 310 310 307 302 302 304 303 303 303 303 303 302 299 295 296 298 298 297 297 297 298 299 298 297 296 295 293 292 290 288 287 285 284 283 281 279 278 276 275 274 275 275 275 274 275 274 273 274 276 276 275 275 274 273 273 273 273 273 273 272 272 272 272 272 272 272 272 273 273 274 274 274 274 275 275 275 275 276 277 277 276
305 307 308 309 310 309 309 307 304 306 309 308 306 306 302 298 298 299 297 297 298 297 296 296 295 295 296 297 296 295 294 292 291 289 287 286 284 282 280 279 277 276 274 273 272 273 274 274 274 275 274 274 276 277 276 274 273 272 271 270 270 271 271 270 270 271 271 271 271 271 271 271 271 271 271 271 272 272 274 275 275 274 274 276 277 277
305 307 306 307 309 308 308 308 306 307 310 310 307 306 301 296 297 300 299 298 297 295 295 297 297 295 293 293 293 294 293 291 289 288 286 283 281 280 278 277 276 274 273 272 271 272 272 273 273 274 274 274 274 274 273 271 271 270 269 269 270 270 270 269 268 269 269 269 270 270 270 269 269 269 269 269 270 270 271 273 274 275 274 274 275 276
Wind_Speed
1 4 6 7 8 10 10 6 1 3 3 6 5 3 3 4 3 1 1 2 1 4 6 6 7 9 11 11 11 6 3 5 9 8 8 7 7 6 6 7 7 8 6 2 6 11 10 12 13 15 17 19 21 23 25 26 28 29 28 27 27 23 20 20 21 20 20 21 20 20 23 26 26 24 23 23 22 22 22 24 27 27 28 30 30 30
2 7 8 5 4 6 6 4 5 5 4 5 5 5 3 2 2 1 0 2 1 3 3 1 5 10 12 12 11 7 6 9 10 9 10 9 8 7 7 8 7 5 3 3 7 9 9 11 11 12 15 16 18 20 22 24 26 27 27 28 29 26 23 21 21 20 21 21 20 19 20 21 22 23 24 25 24 24 23 24 27 28 28 27 26 28
5 8 5 4 5 7 6 3 5 5 4 4 3 4 3 2 3 2 1 2 1 2 1 1 4 9 10 11 11 9 9 9 6 6 7 6 7 7 7 7 5 5 5 5 6 7 8 11 12 13 13 15 17 18 20 21 23 24 26 28 27 26 27 24 21 20 20 20 19 18 16 16 17 18 20 21 22 24 26 27 29 29 28 25 23 24
7 4 3 6 7 9 6 2 5 5 3 3 2 4 3 2 2 2 4 3 0 1 1 1 4 8 8 8 10 8 6 6 4 5 6 6 9 10 7 5 5 7 8 7 7 7 7 9 11 12 13 15 16 17 19 20 21 23 25 27 25 26 28 26 25 22 18 17 17 16 16 16 16 16 17 17 19 22 24 25 26 27 28 27 25 25
3 2 2 6 7 8 7 4 6 6 4 1 3 4 2 4 4 1 4 5 1 1 1 2 5 6 4 5 7 3 1 3 3 4 6 6 7 8 7 6 7 8 9 8 8 6 5 6 8 10 11 14 16 17 19 19 20 21 21 23 23 25 25 25 26 22 16 16 16 17 19 19 18 18 18 18 19 21 23 23 23 26 28 28 27 27
1 2 2 7 5 5 6 6 6 6 5 2 5 5 2 6 6 3 6 5 3 3 0 2 5 4 1 3 5 0 1 3 1 2 5 3 3 4 5 6 5 6 7 8 8 6 5 6 6 7 8 11 14 16 17 17 18 18 18 18 19 21 22 22 24 21 16 16 16 18 20 20 19 19 20 21 20 18 18 19 21 21 23 23 24 24
2 1 1 5 7 6 6 6 5 5 5 3 3 3 3 5 8 8 7 4 2 2 1 1 5 3 1 3 2 1 4 5 2 2 3 2 2 2 3 4 4 4 5 6 6 6 5 5 4 4 4 6 10 13 14 15 16 16 15 15 15 17 19 19 20 18 16 15 16 18 20 19 18 18 17 17 16 14 13 14 15 16 18 18 20 22
4 4 2 4 6 6 6 6 6 7 6 2 0 2 6 8 8 8 7 3 0 1 1 0 2 3 5 3 1 1 4 7 4 2 1 1 2 2 3 4 4 4 4 3 4 3 3 3 3 2 3 4 8 10 11 12 13 14 13 11 12 14 15 16 17 15 14 15 15 16 17 17 16 15 14 12 12 12 12 12 12 13 15 16 17 19
3 5 6 7 6 6 5 2 3 7 5 0 1 1 4 5 5 5 4 2 1 1 3 2 1 4 5 2 1 1 4 7 4 3 1 2 2 3 3 4 4 3 2 2 2 0 1 1 2 3 3 6 8 9 10 11 11 12 12 11 11 12 13 14 14 14 14 15 13 13 14 15 14 13 12 11 10 10 10 11 12 12 13 14 16 19
1 2 3 5 5 4 3 3 0 3 2 3 4 5 5 4 5 3 2 3 2 3 5 2 1 4 5 3 2 1 2 6 3 3 2 1 1 2 3 4 4 3 2 0 0 0 2 2 3 6 7 8 9 10 11 12 13 13 13 12 11 11 12 13 13 14 14 14 12 11 12 13 12 11 11 12 13 12 13 15 14 13 14 15 17 21
1 0 1 1 1 2 4 5 3 1 5 7 6 6 7 4 3 2 2 1 2 4 2 2 2 3 4 3 3 2 2 2 3 5 4 3 2 1 2 3 3 3 2 1 1 2 3 5 7 9 9 10 11 12 12 13 13 13 13 12 11 11 11 11 12 13 13 14 13 11 11 11 12 10 10 12 14 15 18 19 17 15 15 16 19 21
1 2 1 1 1 2 5 6 5 2 5 5 3 5 6 3 1 2 1 0 5 4 1 2 3 3 5 3 1 0 1 1 3 6 8 6 5 3 2 2 3 3 2 1 2 4 5 6 8 9 10 12 13 13 14 14 14 14 13 12 11 10 9 9 9 10 11 12 13 13 11 10 10 10 10 11 11 12 14 17 15 14 16 19 20 21
2 2 1 1 0 3 4 6 5 1 2 2 4 7 5 3 2 3 2 2 5 2 2 2 2 3 7 6 4 5 3 3 4 4 5 5 4 3 2 3 2 2 1 1 3 3 5 6 7 8 10 12 13 14 15 15 14 14 13 12 10 9 8 7 7 7 7 8 10 11 12 12 11 11 11 11 10 10 10 11 11 10 12 14 16 18
2 1 1 2 2 3 4 5 5 4 5 5 7 7 5 5 4 5 3 1 3 0 2 1 1 3 5 5 7 9 4 2 3 2 1 1 1 2 3 3 3 1 1 1 2 3 4 5 6 8 11 13 14 15 15 15 15 15 14 13 12 11 9 8 7 6 5 5 6 7 9 10 11 11 11 10 10 11 10 11 12 12 11 12 13 14
5 3 3 4 2 2 4 2 1 4 5 3 1 1 4 4 4 4 3 2 2 2 2 1 2 4 3 0 2 4 1 1 2 2 3 4 2 2 4 3 1 0 1 1 2 3 4 5 6 8 12 14 15 15 16 16 15 15 14 13 12 11 9 8 7 6 5 4 4 5 6 7 9 10 11 11 12 13 13 12 12 13 14 14 14 15
3 2 1 1 1 2 3 2 2 4 4 1 1 0 3 2 2 2 1 0 1 1 2 3 3 4 2 3 2 1 1 2 2 1 3 5 1 1 2 1 2 2 3 2 3 4 4 5 6 7 10 12 14 15 15 15 15 14 14 13 12 11 10 9 7 6 5 4 3 3 4 5 6 7 8 10 11 12 13 11 10 11 13 14 14 14
2 1 2 2 0 1 0 2 1 1 2 2 2 3 2 1 4 4 1 1 1 3 2 2 4 3 3 5 2 3 2 3 3 3 4 4 1 3 2 3 4 4 4 3 3 4 4 5 6 7 9 11 13 15 15 15 14 14 14 13 12 11 10 8 7 6 5 4 2 1 1 2 4 5 6 7 8 9 9 8 9 10 11 12 13 13
3 2 2 1 1 2 2 1 2 2 1 2 3 5 3 1 1 2 1 1 0 4 2 2 5 4 2 3 1 3 3 4 5 5 3 2 2 3 4 4 6 5 4 4 4 3 4 5 6 9 12 14 15 15 15 14 14 13 13 12 11 10 9 8 6 5 4 4 3 2 1 2 3 4 5 5 6 7 7 7 9 9 10 11 11 12
2 2 1 1 0 1 2 1 2 1 1 0 1 3 3 2 2 2 2 2 2 4 2 2 3 4 5 4 0 3 7 7 7 5 4 5 5 5 5 6 6 6 5 4 4 3 3 4 6 10 13 15 16 15 15 15 14 14 13 12 10 9 8 7 5 5 4 4 3 2 1 1 2 3 4 4 5 5 5 5 7 8 9 9 10 10
1 2 1 1 1 0 1 2 4 4 2 1 1 2 0 1 2 2 2 2 3 3 2 2 1 3 6 5 4 7 8 9 9 6 5 7 7 7 7 7 7 6 5 5 4 3 3 5 7 11 14 15 15 15 15 15 14 14 13 12 11 10 8 7 6 5 5 5 4 3 2 0 1 1 1 1 2 2 2 2 4 5 7 7 8 9
2 1 2 2 1 2 3 2 4 5 4 3 4 5 3 1 1 1 1 1 1 3 3 3 3 3 3 4 8 8 4 5 8 7 6 6 6 7 8 7 7 6 5 4 4 3 4 5 7 11 14 15 15 15 15 15 15 14 14 13 12 11 10 9 8 7 7 7 6 5 4 3 3 2 2 2 2 2 2 2 3 4 5 6 7 7
1 1 3 4 3 4 2 1 1 2 0 2 3 5 6 4 3 3 4 1 0 2 2 2 4 4 1 2 6 4 2 3 5 4 5 6 7 8 7 6 6 5 5 4 4 4 5 5 7 11 13 14 15 15 15 15 15 14 14 13 13 12 11 11 10 9 9 8 7 7 6 6 6 5 5 5 5 4 4 5 5 5 5 6 6 7
1 2 4 3 2 2 2 1 0 2 1 0 1 1 2 3 4 5 6 4 3 1 1 1 3 4 1 1 2 1 1 1 1 1 2 5 7 7 7 6 4 4 4 3 3 4 4 5 7 10 12 14 15 15 15 15 15 15 14 14 13 13 13 12 11 11 9 9 9 9 9 9 8 8 8 8 7 6 7 8 7 7 7 7 7 7
2 3 3 2 1 1 1 0 1 0 1 2 3 2 3 3 2 2 2 3 4 4 3 2 4 4 1 2 1 1 1 2 2 3 4 6 6 6 7 7 5 4 4 4 3 4 4 5 6 8 9 11 13 14 14 14 14 14 14 14 14 14 13 12 12 12 11 11 11 11 11 11 11 11 10 10 10 10 10 11 10 10 10 10 10 9
4 3 4 4 2 1 1 2 2 2 3 4 3 3 4 3 4 3 1 2 3 6 6 5 6 5 1 2 1 2 2 3 3 4 4 5 7 7 6 5 5 5 5 5 5 4 4 4 5 5 6 8 11 13 13 14 14 14 14 14 14 14 14 13 13 13 12 13 13 13 13 13 13 13 13 13 13 13 13 13 13 13 13 13 13 13
5 4 6 6 6 5 6 7 6 5 4 3 2 4 7 8 8 5 2 3 5 5 7 7 8 3 2 2 2 3 3 4 4 4 3 4 5 6 6 5 5 5 5 6 6 5 4 4 4 5 6 8 11 13 13 14 14 14 15 15 15 15 15 14 14 14 14 14 15 15 15 15 15 14 15 14 14 15 15 15 15 15 16 16 16 16
3 2 6 9 10 9 10 10 6 5 6 7 10 12 12 12 11 6 2 3 5 3 5 10 9 3 2 5 5 4 6 6 4 6 6 6 7 6 5 5 5 4 4 5 5 5 5 5 5 6 7 8 11 13 14 14 14 14 15 15 15 16 16 15 15 15 15 16 16 16 16 15 15 15 15 15 15 15 15 15 16 16 16 16 16 16
3 4 7 10 12 10 6 4 4 6 9 14 15 12 11 11 11 9 7 8 5 4 5 12 11 9 8 8 8 7 6 5 5 9 10 10 9 6 5 5 5 5 4 4 5 6 6 6 5 6 6 8 11 13 14 14 13 14 15 16 16 16 16 16 15 15 15 16 16 16 16 15 14 14 14 14 14 15 15 15 16 16 16 17 17 16
4 6 7 8 12 11 3 3 4 7 8 9 9 9 11 12 13 14 14 13 8 6 13 15 13 15 12 9 9 8 6 7 8 8 7 6 6 5 5 6 6 7 7 6 6 6 6 6 6 6 7 7 10 13 14 13 13 13 14 15 16 16 16 15 15 15 15 15 15 15 14 14 13 13 14 14 15 16 16 16 17 17 17 17 17 17
3 6 6 8 12 13 6 3 4 5 5 5 7 10 12 13 15 17 17 16 12 12 16 10 7 13 10 9 9 6 4 3 2 4 4 6 8 7 6 7 8 8 7 7 7 6 6 6 6 7 7 6 9 12 13 11 11 11 12 14 16 15 14 14 14 14 14 14 14 14 13 13 13 14 14 15 16 16 17 17 18 18 18 18 18 18
3 4 6 7 8 11 7 4 3 4 5 5 5 6 9 11 14 17 17 16 12 13 17 7 2 9 7 7 6 2 4 3 4 6 8 9 9 9 8 7 8 9 8 7 7 6 6 6 7 8 7 6 9 11 10 9 9 10 11 14 15 14 13 13 13 13 13 13 13 13 13 14 14 15 16 16 17 18 18 19 19 20 20 20 20 20
4 2 3 5 7 9 6 5 5 4 2 3 3 7 11 12 13 14 15 15 13 14 17 9 6 9 5 7 5 3 4 5 6 8 8 8 8 10 11 10 8 9 9 8 8 7 6 6 7 8 7 7 9 9 9 9 9 9 11 14 14 13 12 13 13 13 13 13 14 14 15 15 16 17 18 19 19 20 20 21 21 22 22 23 23 24
5 4 3 5 9 7 1 3 6 6 2 5 6 11 15 15 14 13 11 12 13 13 13 10 9 7 6 9 8 6 6 7 8 9 8 8 9 10 10 10 9 9 9 9 9 8 7 7 8 9 8 8 8 8 9 9 9 10 12 13 13 12 12 12 13 13 13 14 15 16 17 17 18 19 20 20 21 21 22 23 23 24 25 25 25 26
6 7 4 5 6 3 1 3 6 5 7 10 8 12 17 17 15 13 11 12 14 11 9 9 7 3 7 9 10 10 10 10 8 9 8 6 7 9 9 8 9 9 9 9 9 9 9 9 9 9 9 9 9 9 10 9 10 11 13 13 12 11 12 12 13 14 14 16 16 17 18 18 19 20 21 21 22 23 23 24 25 26 26 26 27 28
8 7 4 2 3 1 2 4 6 7 11 8 3 6 13 14 14 14 14 16 15 13 12 13 11 6 8 9 8 9 11 8 3 4 5 3 4 8 8 7 9 10 10 10 10 10 10 11 11 10 9 9 9 10 10 10 11 13 13 12 11 11 12 13 14 15 16 17 18 18 19 19 20 21 22 23 23 24 25 26 27 28 28 28 29 30
9 7 3 2 2 2 3 6 8 5 3 2 0 1 5 7 9 10 12 14 13 12 12 14 16 13 9 8 5 3 3 2 1 1 3 2 2 6 8 9 11 11 11 11 11 11 12 11 11 11 10 10 10 10 10 11 12 13 12 12 11 11 13 14 15 17 18 18 19 20 20 20 21 22 24 25 26 27 28 29 30 30 30 31 32 33
6 7 5 4 4 3 4 6 4 4 3 4 4 3 5 7 10 11 10 11 11 12 12 13 17 16 9 6 4 1 3 2 1 3 3 2 2 3 4 7 11 12 12 12 13 14 14 13 12 12 12 11 10 10 11 12 12 12 12 12 11 12 14 16 17 18 18 18 19 20 21 21 23 24 25 26 28 29 30 31 31 31 32 33 35 36
2 3 5 6 5 3 3 4 2 3 8 10 5 3 4 6 10 12 9 9 10 13 14 15 17 16 9 6 5 4 4 2 5 5 4 5 4 5 6 9 12 14 14 15 16 16 16 15 14 13 12 12 11 12 12 12 11 11 12 12 12 13 15 16 17 18 18 18 19 20 21 21 22 23 25 27 28 29 30 31 31 32 33 34 36 38
2 1 2 4 3 4 5 5 5 7 10 8 5 5 5 6 8 9 6 9 10 11 13 15 16 13 8 8 7 6 6 5 9 6 5 8 8 9 10 12 13 14 15 16 17 17 16 16 15 13 13 12 12 12 11 11 11 11 12 11 11 13 14 15 16 17 17 18 18 18 20 21 21 23 25 27 27 28 29 30 31 32 33 34 35 38
3 2 2 5 5 5 6 6 5 5 6 4 5 4 4 9 12 10 6 9 7 8 10 12 13 11 9 9 8 8 9 9 7 3 8 11 11 10 11 13 14 15 16 17 18 18 17 16 14 12 12 12 11 10 10 10 11 12 12 10 10 12 13 13 15 15 16 16 16 17 19 21 23 25 26 27 27 28 28 30 31 32 34 35 36 37
3 3 3 6 6 5 7 6 4 3 4 3 4 4 7 11 10 9 8 5 4 8 8 10 13 12 11 10 8 7 7 3 3 8 12 13 13 12 12 14 16 16 16 17 19 19 17 14 13 12 12 11 9 9 10 10 11 11 11 10 10 11 12 12 13 14 14 15 15 17 19 22 24 26 26 26 27 28 29 30 31 33 33 34 35 36
5 5 4 6 5 4 5 4 4 5 4 4 4 2 5 8 6 7 5 0 2 5 5 7 10 9 7 8 7 4 3 5 9 13 13 13 13 13 13 15 16 16 16 17 17 17 15 13 13 13 11 9 9 9 9 9 10 11 10 10 10 11 11 12 13 13 13 13 15 18 21 23 25 25 25 26 26 28 30 31 31 33 33 33 34 34
7 7 5 5 5 3 3 5 5 6 2 8 10 3 3 4 2 2 2 2 1 2 2 3 5 4 5 7 5 5 8 10 11 13 13 11 12 13 14 15 15 14 14 14 14 14 14 13 12 11 10 9 8 8 8 8 10 10 10 10 10 10 11 12 13 12 11 12 16 20 22 23 24 24 24 25 26 28 31 32 32 33 33 33 34 34
7 7 5 5 6 5 6 8 6 2 3 9 9 5 6 4 0 1 2 2 0 2 2 2 3 3 5 7 8 9 10 11 12 13 13 12 12 12 12 13 13 13 12 12 12 14 15 13 11 10 10 8 8 8 8 9 9 10 10 9 9 10 11 12 12 11 11 14 19 22 23 23 23 23 24 25 27 29 31 32 33 34 34 32 30 27
6 6 4 4 5 5 5 5 3 1 3 5 3 1 3 2 1 1 2 1 1 3 3 3 3 4 4 8 10 10 10 11 12 12 12 12 11 11 12 12 12 12 12 11 12 14 14 13 12 11 10 8 7 8 8 8 9 10 9 8 9 11 11 11 12 12 14 18 20 22 22 23 23 24 26 28 29 30 32 33 33 34 34 31 26 22
1 1 0 2 3 2 2 4 3 1 2 3 1 2 0 1 2 1 1 1 2 3 2 3 5 7 8 9 10 9 10 12 13 11 11 12 11 10 12 12 11 11 12 11 11 13 14 13 13 12 10 7 7 8 8 8 9 9 9 9 11 11 11 12 15 16 17 20 20 20 21 22 24 26 28 31 31 32 33 33 32 33 34 28 22 20
1 2 1 2 4 4 6 7 5 2 2 3 1 0 1 2 1 1 1 2 1 1 2 2 4 8 9 9 10 11 12 13 13 11 10 10 10 10 11 12 11 10 10 10 11 12 12 12 12 11 10 8 6 7 9 9 10 10 10 10 10 10 11 14 15 16 17 18 19 19 20 22 26 29 30 32 33 33 32 31 30 31 31 25 18 18
2 3 3 2 4 5 4 3 1 1 2 2 2 2 3 3 3 1 1 1 1 3 3 2 4 7 9 8 9 12 13 12 12 13 11 9 9 9 10 11 12 11 10 10 11 11 11 11 10 10 9 8 6 7 8 9 10 9 8 8 8 9 12 13 13 14 15 15 16 19 22 24 27 30 31 32 33 32 31 30 29 30 31 29 22 20
1 3 3 4 5 4 4 1 2 1 2 3 5 6 5 3 3 2 1 2 3 4 4 4 3 4 7 9 9 11 13 11 9 11 11 9 8 9 10 11 12 11 10 10 10 9 9 9 9 9 8 7 6 7 8 9 9 7 6 7 9 9 10 11 11 11 11 12 14 19 24 26 28 29 30 31 32 32 31 29 27 27 32 36 30 22
3 4 3 3 5 6 7 5 5 2 4 5 7 9 7 5 4 4 4 4 5 5 6 7 4 2 3 6 8 10 12 11 10 10 10 9 9 10 12 13 12 11 10 10 9 9 9 8 8 8 7 7 6 6 7 8 6 2 6 8 9 8 10 10 10 10 11 14 18 21 24 27 27 27 28 27 27 30 32 33 31 27 29 35 37 31
4 5 5 5 7 7 6 6 7 6 6 4 4 6 8 7 6 6 6 7 6 6 6 7 7 6 5 4 5 9 10 10 12 12 9 8 10 12 12 12 12 11 11 10 10 9 9 8 7 7 7 6 5 5 6 5 2 4 7 8 7 8 10 11 12 13 15 19 21 23 24 24 24 24 23 21 20 22 26 31 37 37 32 30 33 37
Wind_Direction
197 170 190 198 185 185 184 189 136 80 162 173 160 168 167 169 181 161 100 55 300 218 216 228 247 263 264 261 263 257 199 237 252 254 256 250 250 247 239 240 230 232 238 249 261 255 249 248 247 245 244 243 243 242 239 237 236 233 230 227 226 224 217 217 219 219 220 221 224 226 230 234 235 238 238 238 238 237 237 236 237 242 244 243 244 244
203 205 201 194 159 154 149 120 96 97 126 158 174 182 193 212 161 98 128 85 32 236 209 204 256 258 258 261 261 254 247 250 241 236 243 243 243 243 242 246 242 242 248 247 255 252 245 246 245 243 242 240 239 238 236 234 234 232 229 229 229 226 219 216 217 218 220 221 222 223 227 232 236 239 239 239 239 238 240 242 245 247 245 243 245 244
200 214 182 121 98 96 90 102 120 104 121 150 176 180 191 201 139 117 161 115 62 244 210 146 258 262 255 259 259 243 241 249 245 243 252 252 250 247 244 247 253 262 260 244 248 249 244 245 246 245 244 242 240 237 237 235 232 230 229 229 228 226 225 221 216 217 219 221 221 223 228 230 234 236 237 239 239 239 240 241 243 244 243 245 249 248
195 212 123 119 138 130 115 141 131 110 134 156 160 178 184 162 169 196 170 157 46 305 291 245 268 272 256 254 253 236 238 262 282 276 263 254 253 257 263 272 271 266 266 259 253 248 240 243 247 246 245 242 239 236 235 233 229 229 229 229 226 226 228 225 222 219 217 220 222 223 227 229 231 234 237 241 241 238 238 238 237 237 240 246 250 250
177 19 98 136 156 154 143 162 167 168 185 208 205 192 161 168 204 322 124 145 168 180 295 285 269 268 245 245 247 218 196 261 273 273 253 236 244 262 278 277 255 251 260 262 258 248 236 243 246 245 244 240 234 233 233 231 229 228 228 229 227 228 230 227 226 222 214 215 219 220 224 228 233 237 239 241 242 239 238 239 239 240 244 247 249 246
142 28 162 144 147 158 148 168 195 196 189 211 222 213 203 181 166 111 133 156 191 194 116 319 262 252 129 239 241 180 347 254 207 265 263 248 242 260 270 270 253 245 250 252 258 260 251 255 255 250 247 236 227 227 229 228 227 226 225 226 225 225 227 226 226 221 210 209 214 215 217 221 227 233 235 234 236 239 240 240 241 244 246 244 243 242
104 75 181 146 149 155 163 186 195 195 194 205 214 187 165 159 139 140 165 182 219 200 79 325 258 252 300 261 223 52 312 280 248 239 273 298 308 286 280 286 282 265 253 247 257 262 256 253 246 232 222 215 212 214 218 218 217 216 215 216 215 218 221 221 221 215 205 205 209 212 214 217 221 227 233 235 237 241 243 243 242 244 245 242 242 243
112 127 153 137 143 154 177 193 182 187 195 192 198 135 141 145 145 155 169 184 311 101 128 314 291 274 273 262 116 37 282 267 242 204 277 351 352 340 325 314 307 291 274 256 254 246 231 227 202 184 176 178 183 190 198 201 200 201 200 200 201 205 211 213 211 204 200 204 207 210 215 219 224 230 237 242 242 242 243 245 245 245 247 247 247 248
100 162 175 155 157 177 186 185 164 182 193 172 26 101 126 129 130 145 153 129 48 267 215 164 43 266 258 241 93 30 272 254 220 153 110 54 34 2 358 352 341 329 299 256 259 202 132 147 157 144 134 141 148 154 165 171 174 178 180 182 185 190 198 204 203 199 201 205 206 209 214 220 227 232 239 242 241 242 243 246 248 249 250 253 257 259
32 199 194 164 175 179 131 38 22 193 158 134 145 107 87 79 76 92 125 114 106 251 227 147 85 259 258 241 185 97 264 249 208 127 114 92 54 352 10 10 6 19 21 343 287 25 85 93 120 126 121 123 129 135 143 150 156 161 164 166 171 179 188 194 198 200 204 206 206 211 216 222 229 235 240 244 246 247 250 253 254 254 254 257 261 262
327 342 328 319 193 143 108 66 22 39 117 138 150 112 93 74 57 64 38 84 191 243 223 82 6 276 267 246 203 197 234 229 156 135 145 139 120 95 48 21 17 26 28 48 85 99 94 97 112 117 117 117 120 124 128 134 140 144 150 154 161 172 179 185 192 198 205 209 212 218 221 227 234 240 245 249 252 254 256 258 257 256 257 259 261 262
75 105 168 68 48 142 123 85 49 64 129 138 161 134 115 85 85 122 62 185 225 230 114 36 341 254 240 238 175 242 271 236 183 152 145 140 122 96 49 21 19 12 8 56 93 104 106 109 113 113 113 116 117 118 121 125 129 133 138 144 151 158 164 172 182 192 204 212 219 226 230 235 240 243 247 251 255 256 257 258 256 255 259 263 265 265
105 113 105 64 280 225 157 108 82 78 199 182 163 156 150 139 164 197 191 206 234 238 59 1 311 238 244 261 279 272 250 233 232 174 139 139 126 91 32 8 9 5 7 68 92 100 107 110 112 114 115 115 115 116 119 121 123 126 129 131 133 136 140 149 162 179 197 210 221 229 234 240 244 247 248 253 257 256 255 255 252 251 258 266 268 268
161 169 158 144 184 233 201 148 141 177 198 187 168 167 172 155 172 202 186 230 260 253 53 318 291 255 258 269 261 252 230 176 237 247 226 245 286 4 344 332 333 347 24 75 93 97 101 104 103 106 111 113 114 117 120 123 125 126 127 129 130 131 134 138 147 161 178 200 216 227 236 242 249 254 255 257 259 257 256 257 258 259 262 263 266 272
188 200 178 165 157 179 202 220 161 146 161 185 165 160 186 175 190 203 182 213 227 105 93 196 232 228 220 79 246 249 316 53 250 274 287 272 264 311 303 292 287 137 117 102 104 102 96 101 103 106 111 113 115 117 119 121 123 124 125 126 126 126 128 129 134 143 152 178 203 219 233 241 248 254 257 261 264 266 267 268 270 271 272 272 273 277
195 241 73 65 285 171 181 290 355 99 125 180 11 69 214 197 138 121 72 136 103 75 159 188 243 249 258 286 257 210 287 256 231 240 264 262 203 153 265 199 141 137 127 122 123 114 105 111 114 116 117 114 113 113 113 114 115 116 116 117 117 116 116 117 120 126 137 157 175 201 223 237 247 252 258 263 270 275 273 271 272 275 277 278 279 280
180 244 18 29 348 94 313 304 337 98 143 150 164 182 202 46 103 115 109 63 26 259 200 166 249 264 280 276 246 128 203 204 179 195 229 250 179 140 187 159 141 142 134 128 123 118 123 129 122 116 114 110 108 106 106 107 109 112 114 114 116 115 115 116 117 120 123 128 132 151 245 269 275 275 277 278 279 280 277 276 278 280 283 285 287 288
169 128 14 359 122 58 322 276 55 14 101 142 178 171 142 55 70 121 169 109 161 247 218 165 240 252 230 248 85 116 186 192 185 191 193 216 184 153 166 160 147 140 132 121 115 121 130 126 114 106 102 100 102 103 101 103 105 110 115 116 118 118 119 118 117 119 115 104 97 76 2 310 296 285 282 281 282 282 283 290 291 289 292 293 292 291
157 138 52 356 180 56 341 228 133 77 6 330 196 146 127 196 201 175 186 175 194 231 243 204 240 263 221 215 131 163 192 200 198 189 183 190 179 163 163 159 148 138 138 137 136 142 126 106 98 98 97 96 99 100 98 99 99 102 105 108 111 108 106 106 103 103 99 98 101 93 74 277 280 279 280 281 285 291 296 301 302 299 297 294 291 288
125 190 159 73 297 351 353 233 191 170 117 43 131 137 356 278 210 186 165 179 211 213 236 227 208 237 218 208 215 206 198 198 193 183 190 189 176 168 163 160 156 149 151 152 151 142 110 94 92 96 99 98 99 100 99 99 96 95 96 96 95 91 86 86 84 86 88 88 89 86 89 80 321 302 300 291 294 318 327 318 311 304 301 300 298 296
106 228 167 107 322 205 187 220 211 187 158 151 166 170 182 158 52 248 166 93 241 207 211 239 240 233 207 195 212 212 193 190 190 185 188 183 174 169 160 157 153 149 153 152 145 130 109 98 91 94 99 101 101 101 100 98 95 93 93 92 90 89 87 85 82 84 84 82 83 81 79 70 58 58 53 55 56 43 44 37 357 327 319 316 312 307
157 183 143 138 179 191 199 306 293 274 215 162 187 185 183 158 136 191 202 153 326 244 207 230 264 256 172 181 216 203 135 191 205 200 181 168 173 167 151 149 144 141 152 145 130 116 101 95 92 95 99 100 100 99 96 97 95 92 91 90 90 89 86 85 83 83 81 82 83 80 76 71 68 66 61 61 59 53 55 50 28 3 349 341 335 327
102 106 117 137 187 211 296 340 215 271 299 288 268 224 182 173 174 197 208 184 149 144 93 81 281 274 115 133 225 167 156 232 267 253 173 155 170 163 144 142 136 124 127 117 110 103 91 91 94 94 95 95 95 95 95 95 94 92 90 89 89 87 84 83 83 82 82 82 81 79 77 73 69 67 63 62 59 55 54 50 40 27 14 6 0 350
98 113 120 102 80 345 313 272 143 180 246 230 237 207 189 201 196 195 203 161 150 165 165 173 249 260 109 101 217 175 250 270 266 230 189 161 166 163 150 148 142 128 121 112 105 97 89 89 93 91 89 90 93 93 93 94 93 93 92 91 90 87 84 85 86 86 86 83 80 78 76 72 68 65 62 59 54 51 50 48 44 36 27 22 17 10
181 164 135 119 128 147 191 208 201 198 214 226 221 187 193 166 94 85 109 145 192 203 186 194 242 249 131 101 171 156 207 244 236 223 205 179 168 163 157 151 145 139 134 129 122 112 107 102 98 97 92 91 94 94 92 91 92 92 92 92 92 90 88 89 89 90 88 85 82 78 74 71 67 63 60 55 50 47 46 45 42 36 31 27 22 18
184 181 158 162 171 173 193 204 202 193 188 213 206 179 192 180 160 164 162 174 216 201 174 204 236 238 110 143 189 156 179 218 210 189 199 198 176 168 165 158 153 153 148 144 138 130 128 120 108 106 99 94 95 95 92 89 89 91 92 93 94 95 96 95 94 92 88 84 80 75 72 68 63 60 56 50 46 43 40 40 37 33 29 25 21 18
151 196 190 196 199 198 206 208 192 149 148 191 207 199 196 193 186 179 129 184 205 160 173 221 235 238 173 187 206 196 188 203 192 164 175 191 187 179 168 155 148 148 146 144 144 142 137 131 120 108 100 97 96 95 94 91 88 91 93 95 98 99 99 97 94 90 85 80 76 72 68 63 58 55 50 45 42 38 35 34 31 28 25 19 15 13
119 204 203 209 222 222 209 196 173 161 182 206 209 196 187 186 184 188 205 210 175 116 223 233 227 236 224 191 202 212 186 187 192 181 183 185 180 171 155 150 148 149 149 148 152 151 142 133 124 112 102 100 100 98 96 94 92 94 96 98 100 100 99 97 93 88 82 77 72 67 63 58 53 48 44 39 35 31 29 27 23 20 16 12 9 6
150 206 201 199 226 233 189 116 179 186 197 213 204 181 177 176 181 194 213 216 174 170 236 234 215 225 222 182 201 217 191 193 198 183 172 157 156 158 156 165 167 163 164 164 160 154 145 136 127 117 107 102 102 100 99 98 98 98 100 101 102 101 100 97 92 86 80 73 68 63 58 53 47 41 36 31 26 23 20 17 15 11 8 5 2 359
174 200 192 186 221 233 205 144 195 189 181 202 197 186 177 176 189 200 213 219 200 209 239 238 210 229 219 177 202 217 177 186 159 120 135 153 167 176 175 179 178 170 169 167 162 156 146 135 124 116 111 109 108 104 104 107 107 107 107 106 106 103 99 95 89 82 75 68 61 55 49 45 38 32 28 23 19 16 13 10 8 4 1 360 356 353
203 193 174 167 216 233 204 151 183 188 188 200 190 181 176 181 199 209 218 221 212 226 241 240 256 256 223 171 197 181 100 115 131 155 181 181 177 179 182 188 180 169 169 165 160 154 146 138 128 122 121 118 113 110 115 123 124 121 112 105 105 102 96 90 83 76 69 61 53 46 40 35 30 25 21 18 14 11 8 5 3 360 357 355 352 349
190 186 134 150 210 228 200 164 170 147 145 215 190 183 186 189 200 208 216 216 206 221 234 233 257 257 198 150 184 175 137 165 178 184 194 192 184 183 188 190 178 170 170 164 159 155 151 148 137 131 131 127 120 121 129 132 126 116 105 100 100 98 89 80 72 66 59 50 43 37 32 27 23 21 17 13 11 7 5 2 360 358 355 352 351 348
176 173 143 171 204 221 194 153 153 123 125 233 217 196 191 197 206 208 216 219 211 215 218 215 231 230 144 147 186 198 196 202 200 199 197 192 192 191 191 184 171 171 169 160 160 159 154 150 139 135 134 128 124 123 119 116 112 104 98 97 98 92 81 69 62 57 50 42 36 29 25 21 18 15 12 9 6 3 1 359 356 355 352 349 348 345
178 183 176 181 202 211 92 117 132 154 221 229 217 197 193 197 201 201 213 218 211 211 219 230 241 184 137 169 186 190 208 214 209 210 205 193 191 188 186 179 167 164 161 157 158 155 150 145 136 132 130 122 118 114 107 106 107 101 97 97 94 84 73 61 53 47 39 34 29 22 19 15 12 10 6 4 1 359 358 356 354 352 349 346 345 343
177 187 184 179 191 153 109 144 168 210 229 228 219 195 195 198 196 199 219 222 210 208 221 240 249 213 178 192 190 190 211 213 205 222 218 210 191 174 167 168 165 161 159 159 158 152 148 146 139 133 126 119 115 110 104 105 105 99 93 91 85 72 60 49 42 36 30 26 22 17 14 10 8 6 3 0 359 357 355 354 351 349 347 344 342 340
176 177 163 148 155 123 138 185 203 231 242 210 347 169 178 188 190 202 231 233 215 205 212 228 238 228 199 190 191 195 199 156 53 266 218 226 213 175 167 170 170 166 161 157 153 147 145 142 135 130 124 118 115 108 100 99 96 90 84 79 72 59 48 40 33 28 23 20 16 13 11 7 4 3 1 359 357 354 353 351 348 346 344 341 339 337
180 173 170 184 190 167 172 198 228 327 312 214 209 192 171 173 174 186 226 240 213 197 205 220 232 232 209 169 157 117 90 101 271 249 195 181 208 184 164 155 150 145 138 136 135 135 136 133 128 126 123 117 110 99 92 89 84 80 75 68 59 47 39 33 27 22 18 14 10 8 8 4 2 0 358 356 354 351 349 347 344 343 342 338 336 334
177 179 186 197 198 161 169 203 221 252 244 229 201 157 168 180 177 180 208 243 218 193 197 212 224 228 208 147 139 148 125 159 239 232 168 149 150 127 106 109 118 121 122 127 129 129 130 131 129 128 124 113 98 88 83 80 76 72 67 60 52 42 34 28 21 15 12 8 5 4 4 1 359 358 355 353 350 347 345 342 341 340 339 337 334 331
88 85 174 199 198 166 182 210 203 212 240 237 178 149 169 168 153 150 190 249 233 193 191 206 219 223 197 155 157 160 151 200 233 222 147 137 138 127 119 117 115 114 119 128 131 131 132 133 131 127 116 100 87 80 77 74 72 69 64 58 50 40 30 22 15 10 7 3 0 360 359 357 356 354 351 349 346 343 341 339 338 337 335 334 332 330
137 140 178 200 202 184 193 220 223 226 253 235 167 162 164 142 129 134 198 249 232 178 183 199 208 216 199 169 161 169 186 215 234 171 130 131 125 118 119 123 122 121 122 127 132 134 135 134 127 114 100 90 83 79 77 74 70 66 62 59 50 37 26 16 10 6 2 358 355 354 354 353 352 350 347 345 342 340 339 337 336 335 333 331 330 328
163 173 199 206 206 196 197 218 248 253 246 210 176 167 151 141 144 178 212 236 166 162 181 189 194 208 201 173 165 185 202 209 106 117 127 126 120 114 111 114 118 120 122 128 135 137 134 126 116 103 94 91 88 80 75 75 72 65 61 57 46 31 19 11 6 2 357 353 350 349 349 349 348 346 344 343 341 338 337 337 335 333 332 330 328 326
172 180 197 202 202 206 204 217 259 264 234 152 121 125 158 160 182 208 209 30 130 168 183 190 193 199 182 166 174 178 136 103 111 125 129 126 124 124 120 117 117 118 123 130 135 135 129 118 109 102 96 94 90 81 75 76 74 68 61 51 36 22 13 7 2 356 353 351 346 345 346 345 345 344 342 342 341 338 336 336 335 332 331 329 326 323
172 172 185 192 188 190 200 206 231 261 221 126 114 111 223 206 208 190 137 48 343 170 160 191 195 182 160 161 152 119 119 125 127 127 126 126 125 125 129 130 126 125 127 130 132 134 130 120 111 105 102 95 86 79 73 71 70 66 57 44 29 17 9 3 358 354 351 345 342 342 343 342 342 344 343 342 341 338 336 335 334 332 331 330 327 324
174 172 183 196 189 181 194 205 212 222 166 152 144 169 206 200 33 68 145 116 276 201 191 193 184 181 174 153 131 128 135 135 133 132 131 131 129 129 131 131 129 129 127 125 130 133 129 122 116 110 105 95 81 73 68 65 65 63 54 40 23 13 8 3 359 355 346 339 338 341 342 343 343 344 344 342 340 338 336 335 333 331 330 329 325 320
196 190 185 185 189 189 199 211 212 134 177 188 165 153 196 183 55 94 160 133 188 199 197 185 171 171 160 135 129 138 143 140 142 142 136 135 137 135 133 132 131 130 124 121 127 130 127 124 121 116 108 93 75 71 70 67 64 61 52 36 22 16 10 1 355 350 342 338 340 343 343 344 343 342 340 340 340 338 335 334 332 330 328 326 321 314
257 228 136 141 171 211 245 223 209 205 240 229 145 68 338 334 23 101 197 253 222 187 180 184 167 155 151 141 135 139 149 148 145 141 137 138 138 133 132 132 129 125 123 121 124 129 129 126 122 119 115 98 76 73 74 70 65 60 49 33 25 18 3 350 347 344 341 341 343 345 344 342 340 339 338 338 338 336 333 332 330 327 324 320 314 308
295 192 165 162 172 192 222 220 198 174 222 235 220 188 236 244 252 241 245 271 267 154 155 166 148 145 151 151 142 144 152 150 142 140 140 138 137 139 138 133 128 125 123 122 129 137 136 129 123 118 113 99 75 68 74 72 65 57 44 29 17 1 346 344 344 341 340 343 345 344 341 339 337 337 336 336 335 333 330 328 325 322 317 311 305 303
207 167 158 192 194 199 226 231 160 145 227 227 236 252 234 214 207 213 244 254 93 105 110 110 132 146 155 159 148 142 148 152 147 145 147 143 140 142 138 131 130 127 120 124 137 141 135 127 119 108 101 93 70 62 72 70 59 48 35 16 356 339 338 344 345 341 342 343 341 338 337 336 335 334 334 332 331 329 325 322 319 315 311 307 302 299
150 163 171 191 202 228 259 242 95 12 262 218 213 224 223 198 173 151 132 128 118 117 115 111 125 155 159 163 156 142 144 155 153 141 141 143 139 136 134 132 130 128 125 129 137 136 126 116 107 97 92 82 67 66 71 65 56 43 11 350 341 339 346 351 348 343 341 338 333 334 335 334 332 331 331 329 327 324 321 318 314 309 308 309 305 291
176 185 173 171 194 225 239 204 153 180 240 226 217 215 201 168 151 151 158 161 159 161 149 128 108 71 111 143 157 150 144 150 153 141 135 136 136 135 136 134 128 126 129 131 132 129 119 106 101 100 92 80 74 76 73 69 66 17 332 339 347 354 -0 359 352 341 337 335 333 332 331 330 329 329 328 325 322 322 320 318 315 308 302 306 309 303
203 193 175 191 212 230 236 199 172 200 238 245 224 205 181 162 162 171 178 177 170 173 169 147 133 128 118 119 156 160 146 142 148 145 129 122 131 132 131 136 135 130 133 138 134 126 116 110 108 105 98 93 94 93 88 88 81 314 328 347 1 5 3 358 350 341 335 333 332 331 330 329 327 326 324 319 315 316 316 316 317 314 306 302 307 310